Regional Weather Roundup
Issued by NWS State College, PA

Home | Current Version | Previous Version | Graphics & Text | Print | Product List | Glossary Off
Versions: 1 2 3 4 5 6 7 8 9 10 11 12 13 14 15 16 17 18 19 20 21 22 23 24 25 26 27 28 29 30 31 32 33 34 35 36 37 38 39 40 41 42 43 44 45 46 47 48 49 50

000
ASUS41 KCTP 202210
RWRCTP

REGIONAL WEATHER ROUNDUP
NATIONAL WEATHER SERVICE STATE COLLEGE PA
600 PM EDT SUN APR 20 2014

Note: "fair" indicates few or no clouds below 12,000 feet with no
significant weather and/or obstructions to visibility.

* = STATION THAT DOES NOT REPORT PRECIPITATION /E.G. RAIN...SNOW...ETC/
    THUNDER OR FOG.

PAZ002>004-007>009-013>016-020>023-029>032-202300-
WESTERN PENNSYLVANIA

CITY           SKY/WX    TMP DP  RH WIND       PRES   REMARKS
ERIE           MOSUNNY   64  28  25 NE8       30.20F
MEADVILLE      SUNNY     71  18  13 S10       30.20F
FRANKLIN*      SUNNY     70  21  16 SE9G16    30.23F
NEW CASTLE     FAIR      73  18  12 S7        30.20F
BEAVER COUNTY  NOT AVBL
BUTLER*        SUNNY     70  25  18 E8        30.23F
PITTSBURGH INT PTSUNNY   72  19  13 SE9       30.19F
PITTSBURGH     SUNNY     73  21  14 SE9       30.20F
INDIANA*       SUNNY     68  19  15 SE6       30.24S
LATROBE        MOSUNNY   70  28  21 S12       30.22F
WASHINGTON CO* SUNNY     72  25  17 E7        30.21F
$$

PAZ004>006-010>012-017>019-024>028-033>037-041-042-045-046-049>053-202300-
CENTRAL PENNSYLVANIA

CITY           SKY/WX    TMP DP  RH WIND       PRES   REMARKS
BRADFORD       SUNNY     66  16  14 S6        30.24F
DUBOIS         SUNNY     68  17  14 MISG      30.24S
CLEARFIELD     SUNNY     66  18  15 VRB5      30.26F
JOHNSTOWN      SUNNY     61  24  24 SE9       30.26S
ALTOONA        SUNNY     64  29  26 SE9       30.27F
STATE COLLEGE  SUNNY     66  27  22 S8        30.27F
WILLIAMSPORT   SUNNY     65  32  29 S5        30.28F
SELINSGROVE    MOSUNNY   66  32  28 SW6       30.30F
FT INDIANTOWN  NOT AVBL
CAPITAL CITY   SUNNY     61  34  36 E10       30.33S
HARRISBURG     MOSUNNY   62  37  39 SE8       30.32F
YORK           SUNNY     62  32  32 SE9       30.32F
$$

PAZ038>040-043-044-047-048-054-055-060>062-067>071-202300-
EASTERN PENNSYLVANIA

CITY           SKY/WX    TMP DP  RH WIND       PRES   REMARKS
SCRANTON       SUNNY     64  26  23 S9G20     30.30F
MOUNT POCONO   SUNNY     55  26  32 S8        30.34S
ALLENTOWN      SUNNY     61  27  27 SE10      30.36S
QUAKERTOWN*    CLEAR     57  28  33 SE9       30.38R
READING        SUNNY     61  30  31 SE10      30.34S
LANCASTER      SUNNY     59  33  37 SE10      30.33F
COATESVILLE    CLEAR     57  27  30 SE6G16    30.36S
POTTSTOWN      SUNNY     58  29  33 E6        30.38S
BLUE BELL      MOSUNNY   59  28  31 E8        30.37F
DOYLESTOWN     MOSUNNY   55  28  35 VRB3      30.37F
WILLOW GROVE   NOT AVBL
NORTH PHILA    MOSUNNY   56  27  32 SE12      30.41F
PHILADELPHIA   PTSUNNY   56  26  31 E12       30.39F
$$



USA.gov is the U.S. government's official web portal to all federal, state and local government web resources and services.